www.pogodaiklimat.ru

Погода и климат >> Архив погоды >> Россия >> Хабаровский край >> Сектагли


ПОГОДА в Сектагли

  • Прогноз погоды в Сектагли
  • Монитор погоды в Сектагли

АРХИВ ПОГОДЫ в Сектагли

Время (UTC), дата Ветер
(напр.,м/с)
 
Видим.   Явления Облачность Т
(С)
Тd
(С)
f
(%)
Тe
(С)
Тes
(С)
Комфортность P
(гПа)
Po
(гПа)
Тmin
(С)
Tmax
(С)
R
(мм)
R24
(мм)
S
(см)
21 9.09 З 1 500 м туман ?/? +8.5 +7.5 93 +8 +8 1011.5 978.5 +7.2 4
00 10.09 СЗ 1 20 км {туман} 10/10 600 м
[St]
+9.9 +7.8 87 +9 +9 1013.9 980.9
03 10.09 ЮВ 1 50 км 9/9 600 м
[Cb cap]
+12.4 +8.0 75 +12 +14 1014.9 982.1
06 10.09 ЮЗ 1 50 км 10/10 600 м
[Cb cap]
+13.0 +8.8 76 +13 +13 1014.9 982.2
09 10.09 З 1 50 км 8/3 600 м
[Sc Cc]
+11.8 +7.7 76 +12 +12 1016.0 983.1 +14.9
12 10.09 З 1 50 км 5/3 600 м
[Sc Ci fib]
+7.6 +6.4 92 +7 +7 1018.1 984.7
15 10.09 СЗ 1 50 км 10/10 600 м
[Cb cap]
+8.4 +7.3 93 +8 +8 1018.2 984.9
18 10.09 З 1 50 км 3/3 600 м
[Sc diur, vesp]
+6.3 +5.2 93 +5 +5 1018.8 985.2
21 10.09 З 2 50 км 8/3 600 м
[Sc Ac lent Ci fib]
+4.7 +3.8 94 +2 +2 1020.0 986.1 +4.0
00 11.09 СВ 1 20 км в посл. час туман 10/10 600 м
[St]
+8.8 +7.8 93 +8 +8 1019.6 986.3
03 11.09 В 2 50 км {ливн. осадки} 9/4 600 м
[Cb cap Ac As]
+14.4 +9.4 72 +14 +17 1018.2 985.6
06 11.09 З 2 50 км {ливн. осадки} 5/3 600 м
[Cb cap Ac lent]
+16.9 +5.8 48 +17 +20 1017.0 984.7
09 11.09 З 1 50 км 3/3 600 м
[Sc diur, vesp]
+13.1 +5.8 61 +13 +14 1017.7 984.9 +18.0 0.7
12 11.09 З 1 50 км ясно +7.4 +5.8 90 +6 +6 1019.7 986.2
15 11.09 З 1 50 км ясно +4.7 +3.6 93 +3 +3 1021.0 987.1
18 11.09 С 1 500 м туман н/о +5.6 +4.6 93 +4 +4 1021.1 987.3
21 11.09 штиль 0 500 м туман ?/? +4.9 +4.0 94 +4 +4 1021.4 987.5 +4.7
00 12.09 ЮВ 1 50 км в посл. час туман 4/3 600 м
[St Ci fib]
+8.8 +6.8 87 +8 +12 1021.0 987.6
03 12.09 В 1 50 км 4/1 600 м
[Cu med, cong Ci fib]
+17.7 +7.6 52 +19 +29 1018.5 986.2
06 12.09 ЮВ 2 50 км 6/0
[Ci fib]
+21.4 +5.3 35 +22 +27 комфорт 1015.5 983.7
09 12.09 штиль 0 50 км 8/0
[Ci]
+14.9 +9.4 70 +15 +15 1015.7 983.3 +21.5
12 12.09 штиль 0 50 км ясно +10.6 +9.3 92 +10 +10 1015.9 983.0
18 12.09 штиль 0 50 км 8/0
[Ci]
+8.6 +7.4 92 +8 +8 1014.4 981.2
21 12.09 ЮВ 1 50 км 9/0
[Ac As]
+10.3 +8.6 89 +10 +10 1012.3 979.5 +8.6
00 13.09 В 2 50 км 10/0
[Ac und]
+15.0 +9.2 68 +15 +16 1009.5 977.3
03 13.09 В 1 50 км 10/8 600 м
[Cb cap Ac und]
+17.6 +9.8 60 +19 +19 1006.8 974.9
06 13.09 З 1 10 км слаб. ливневой дождь 10/10 600 м
[Cb cap]
+14.0 +12.7 92 +14 +14 1004.7 972.5
09 13.09 Ю 1 10 км слаб. ливневой дождь 10/10 600 м
[Cb cap]
+14.3 +13.1 92 +15 +15 1003.0 970.9 +18.1 15
12 13.09 З 1 10 км слаб. ливневой дождь 10/10 600 м
[Cb cap]
+13.7 +12.4 92 +14 +14 1004.7 972.4
15 13.09 З 2
{11}
50 км {ливн. осадки} 9/9 600 м
[Cb cap]
+9.2 +7.2 87 +7 +7 1006.7 973.9
18 13.09 С 1 50 км {ливн. осадки} ясно +6.5 +5.2 91 +5 +5 1008.2 975.0
21 13.09 СЗ 1 50 км ясно +3.5 +2.6 94 +2 +2 1010.6 976.9 +3.5 15
00 14.09 В 1 50 км ясно +10.5 +6.8 78 +10 +15 1011.5 978.6 +3.5
03 14.09 З 3 50 км 4/3 600 м
[Cu med, cong Ac lent]
+15.9 +3.9 45 +16 +21 1010.5 978.3
06 14.09 ЮЗ 2 50 км 4/3 600 м
[Cu med, cong Ac trans]
+17.8 +4.2 40 +18 +22 1009.5 977.4
09 14.09 ЮЗ 1 50 км ясно +12.6 +7.1 69 +13 +13 1010.1 977.5 +18.1
12 14.09 З 1 50 км 3/1 600 м
[Sc diur, vesp Ci fib]
+7.4 +6.1 91 +6 +6 1012.0 978.8
15 14.09 штиль 0 50 км 8/3 600 м
[Sc diur, vesp Ac lent Ci]
+7.9 +6.6 91 +7 +7 1011.7 978.5
18 14.09 С 1 50 км 10/10 600 м
[Cb cap]
+8.2 +6.9 92 +7 +7 1011.4 978.3
21 14.09 ЮВ 1 50 км {ливн. осадки} 3/3 600 м
[Sc]
+8.5 +7.3 92 +8 +8 1010.2 977.1 +7.3 0.8
00 15.09 В 2 50 км {ливн. осадки} 5/3 600 м
[Cu med, cong Ac lent Cc]
+13.3 +9.8 79 +13 +15 1008.1 975.7
03 15.09 Ю 3 50 км 9/5 600 м
[Cb cap Ac trans Cc]
+19.3 +7.0 45 +20 +23 1005.0 973.3
06 15.09 Ю 4 50 км 9/9 600 м
[Cb cap]
+20.8 +6.5 39 +22 +22 комфорт 1001.7 970.3
09 15.09 Ю 4
{11}
50 км 9/8 600 м
[Cb cap Ci fib]
+20.0 +7.4 44 +21 +21 комфорт 999.7 968.3 +22.1
12 15.09 ЮЗ 1
{12}
20 км слаб. ливневой дождь {гроза} 10/10 600 м
[Cb cap]
+11.2 +10.2 94 +11 +11 1006.2 973.6
15 15.09 З 2 50 км {ливн. осадки} 8/3 600 м
[Sc diur, vesp Ci fib]
+6.5 +3.1 79 +4 +4 1009.3 976.0
18 15.09 СЗ 1 50 км {ливн. осадки} ясно +1.7 +0.8 94 -0 -0 1010.6 976.7
21 15.09 СЗ 1 500 м туман ?/? +0.5 -0.4 94 -2 -2 1011.8 977.7 +0.5 15
00 16.09 З 2 50 км в посл. час туман ясно +5.9 +2.7 80 +4 +8 1011.9 978.5 +0.2
03 16.09 Ю 3 50 км ясно +10.8 -2.0 41 +9 +17 1011.1 978.2
06 16.09 З 3 50 км 3/3 600 м
[Cu med, cong]
+12.6 -4.8 29 +12 +15 1011.1 978.5
09 16.09 З 2 50 км ясно +10.5 -5.0 33 +10 +10 1012.2 979.3 +12.9
12 16.09 З 1 50 км ясно +2.6 -0.8 78 +1 +1 1014.8 980.9
15 16.09 СЗ 1 50 км ясно -0.2 -1.4 92 -2 -2 1015.7 981.4
18 16.09 Ю 1 50 км туман ?/? +0.4 -0.4 94 -2 -2 1016.1 981.8

 

Местоположение метеостанции Сектагли (Хабаровский край, Россия): широта 50.43 долгота 131.00 высота над уровнем моря 273 м.

В архиве по умолчанию представлена погода в Сектагли за последнюю неделю. Архивные данные за месяц целиком и за предыдущие месяцы, начиная с января 2011 года, Вы можете получить, выбрав интересующий диапазон дат из раскрывающегося списка и нажав кнопку "Ввод!".


*Определитесь, кто Вы:
робот инопланетянин человек

Внимание! Время в таблицах - всемирное. Для получения местного времени необходимо прибавить поправку, которая равна 10 ч.

Смотрите также архив погоды в соседних городах и на ближайших метеорологических станциях:

Погода в Сутуре (Хабаровский край, Россия) (88 км)
Погода в Чекунде (Хабаровский край, Россия) (98 км)
Погода в Малиновке (Амурская область, Россия) (107 км)
Погода в Завитае (Амурская область, Россия) (119 км)
Погода в Братолюбовке (Амурская область, Россия) (126 км)
Погода в Архаре (Амурская область, Россия) (133 км)
Погода в Екатеринославке (Амурская область, Россия) (142 км)
Погода в Чегдомыне (Хабаровский край, Россия) (157 км)
Погода в Облучье (Еврейская автономная область, Россия) (159 км)
Погода в Верховье Урми (Хабаровский край, Россия) (183 км)

Пояснения к столбцам:

Ветер - указаны скорость ветра в м/с - средняя за 10 мин, порывы в срок и между сроками (в фигурных скобках) и направление, откуда дует ветер: С - северный, СВ - северо-восточный, В - восточный, ЮВ - юго-восточный, Ю - южный, ЮЗ - юго-западный, З - западный, СЗ - северо-западный.
Видимость - горизонтальная дальность видимости в метрах или километрах. При видимости от 1 до 10 км при отсутствии осадков обычно наблюдается дымка, при ухудшении видимости до 1 км и менее - туман. В сухую погоду видимость может ухудшаться дымом, пылью или мглою.
Явления - указаны атмосферные явления, наблюдавшиеся в срок или в последний час перед сроком; фигурными скобками обозначены явления, наблюдавшиеся между сроками (за 1-3 часа до срока); квадратными скобками обозначены град или гололедные отложения с указанием их диаметра в мм.
Облачность - указаны через наклонную черту общая и нижняя облачность в баллах и высота нижней границы облаков в метрах; квадратными скобками обозначены формы облаков: Ci - перистые, Cs - перисто-слоистые, Cc - перисто-кучевые, Ac - высококучевые, As - высокослоистые, Sc - слоисто-кучевые, Ns - слоисто-дождевые, Cu - кучевые, Cb - кучево-дождевые. Подробнее классификацию облаков см. в Атласе облаков (PDF).
T - Температура воздуха - температура, измеренная на высоте 2 м над землей.
Td - Температура точки росы - температура, при понижении до которой содержащийся в воздухе водяной пар достигнет насыщения.
f - Относительная влажность воздуха - влажноcть воздуха, измеренная на высоте 2 м над землей.
Te - Эффективная температура - температура, которую ощущает одетый по сезону человек в тени. Характеристика душности погоды. При расчете учитывается влияние влажности воздуха и скорости ветра на теплоощущения человека.
Tes - Эффективная температура на солнце - температура, которую ощущает человек, с поправкой на солнечный нагрев. Характеристика знойности погоды. Зависит от высоты солнца над горизонтом, облачности и скорости ветра. Ночью, в пасмурную погоду, а также при ветре 12 м/с и более поправка равна нулю.
P - Атмосферное давление - приведенное к уровню моря атмосферное давление.
Po - Атмосферное давление - измеренное на уровне метеостанции атмосферное давление.
Tmin - Минимальная температура - минимум температуры воздуха на высоте 2 м над землей.
Tmax - Максимальная температура - максимум температуры воздуха на высоте 2 м над землей.
R - Количество осадков - Количество выпавших осадков за период времени, мм. При наведении курсора мыши на число - период времени, за который выпало указанное количество осадков.
R24 - Количество осадков - Количество выпавших осадков за 24 часа, мм.
S - Снежный покров - Высота снежного покрова, см. При наведении курсора мыши на число - состояние снежного покрова и степень покрытия местности в баллах.